Regional Weather Roundup
Issued by NWS Newport/Morehead, NC

Current Version | Previous Version | Graphics & Text | Print | Product List | Glossary On
Versions: 1 2 3 4 5 6 7 8 9 10 11 12 13 14 15 16 17 18 19 20 21 22 23 24 25 26 27 28 29 30 31 32 33 34 35 36 37 38 39 40 41 42 43 44 45 46 47 48 49 50
000 ASUS42 KMHX 161626 RWRMHX WEATHER ROUNDUP FOR EASTERN NORTH CAROLINA NATIONAL WEATHER SERVICE NEWPORT/MOREHEAD CITY NC 1200 PM EDT MON OCT 16 2017 NOTE: "FAIR" INDICATES FEW OR NO CLOUDS BELOW 12,000 FEET WITH NO SIGNIFICANT WEATHER AND/OR OBSTRUCTIONS TO VISIBILITY NCZ015>017-031-032-045>047-102-103-161700- NORTH COAST CITY SKY/WX TMP DP RH WIND PRES REMARKS EDENTON CLOUDY 70 61 74 N8 30.03R ELIZABETH CITY CLOUDY 67 63 87 N15G24 30.02S KITTY HAWK CLOUDY 67 62 82 N8G18 30.00S MANTEO CLOUDY N/A N/A N/A N17G25 30.01S $$ NCZ045>047-081-094-103-104-161700- CENTRAL COAST CITY SKY/WX TMP DP RH WIND PRES REMARKS FRISCO CLOUDY 78 71 79 W8 29.99S $$ NCZ095-097-098-100-101-161700- SOUTHERN COAST CITY SKY/WX TMP DP RH WIND PRES REMARKS BEAUFORT CLOUDY 79 71 76 W5 29.98F CEDAR ISLAND NOT AVBL JACKSONVILLE PTSUNNY 80 68 66 W10 29.98F PINEY ISLAND N/A N/A N/A N/A W9 29.98F WILMINGTON SUNNY 84 67 56 W10 29.98F $$ NCZ011>013-027>030-043-044-078>080-089-090>093-098-161700- COASTAL PLAIN CITY SKY/WX TMP DP RH WIND PRES REMARKS AHOSKIE LGT RAIN 62 55 78 N10 30.06S CLINTON CLOUDY 73 66 81 NW9 30.03R ELIZABETHTOWN NOT AVBL GOLDSBORO PTSUNNY 72 64 78 N16 30.01R GREENVILLE HVY RAIN 64 61 88 N16G25 30.05R HAVELOCK PTSUNNY 81 69 67 W8 29.99F KENANSVILLE CLOUDY 73 68 83 NW7 30.01S KINSTON CLOUDY 77 68 73 N7 30.01S NEW BERN MOSUNNY 80 69 69 N8 30.00F RICHLANDS CLOUDY 79 69 71 NW7 30.00F ROCKY MOUNT RAIN 60 59 96 N15 30.08R FOG WASHINGTON CLOUDY 70 65 84 NE15 30.00F WHITEVILLE PTSUNNY 78 69 72 NW3 29.99F $$ AMZ130-135-150-152-154-156-158-170-250-252-270-ANZ085-086-088-633-658-670-161700- MARINE OBSERVATIONS STATION/POSITION TIME TEMP WIND PRES WAVE SWELL AIR SEA DIR/SP/G HT/PER HT/PER (UTC) (F) (DEG/KT/KT) (MB) (FT/S) (FT/S) CHESAPEAKE LIGHT NOT AVBL 64 E VA BEACH 1450 70 71 320/ 12/ 16 1015.5 3/ 8 2/ 8 DUCK 1600 67 72 10/ 18/ 24 1015.7 2 E DUCK 1600 72 N/A 4/ 4 OREGON INLET 1600 70 75 350/ 13/ 18 1015.6 13E OREGON INLT 1548 73 N/A 3/ 8 2/ 8 HATTERAS CG 1600 75 77 290/ 9/ 11 1015.5 DIAMOND BUOY 1550 76 77 280/ 12/ 14 1015.3 3/ 9 2/ 9 CAPE LOOKOUT 1600 76 290/ 6/ 8 1014.9 BEAUFORT LAB 1600 79 72 260/ 2/ 4 1014.6 30 SE NEW RVR IN 1608 76 270/ 6/ 8 1015.4 30 SE NEW RVR IN NOT AVBL 27 SE WRIGHTSVLE 1608 76 78 250/ 6/ 8 1015.4 5 SE WRIGHTSVLE 1608 78 77 260/ 6/ 8 1015.2 225 S CAPE HAT 1550 78 80 140/ 6/ 8 1016.5 3/ 8 3/ 8 41 SE CHARLESTON 1610 77 81 300/ 10/ 12 1015.6 $$

USA.gov is the U.S. government's official web portal to all federal, state and local government web resources and services.